Wetterdaten: Mittwoch, 18.05.2016
Datum Zeit Auen-Temp. Temp gefhlt Luftfeuchte Luftdruck Regen Wind Richtung Richtung Sonnenschein Taupunkt Windben
18.05.2016 00:00 6,0 C 5,8 C 81 % 1017,4 hPa 0,0 mm 0,0 km/h (0 Bft) N-NW 337 0 min 3,0 C 0,0 km/h (0 Bft)
18.05.2016 00:05 6,0 C 5,7 C 81 % 1017,4 hPa 0,0 mm 0,0 km/h (0 Bft) O 90 0 min 3,0 C 0,0 km/h (0 Bft)
18.05.2016 00:10 5,9 C 5,6 C 82 % 1017,4 hPa 0,0 mm 0,0 km/h (0 Bft) SO 135 0 min 3,1 C 0,0 km/h (0 Bft)
18.05.2016 00:15 6,0 C 5,7 C 82 % 1017,2 hPa 0,0 mm 0,0 km/h (0 Bft) O-SO 112 0 min 3,2 C 0,0 km/h (0 Bft)
18.05.2016 00:20 6,0 C 5,7 C 82 % 1017,2 hPa 0,0 mm 0,0 km/h (0 Bft) O-SO 112 0 min 3,2 C 0,0 km/h (0 Bft)
18.05.2016 00:25 5,6 C 5,4 C 83 % 1017,2 hPa 0,0 mm 0,3 km/h (0 Bft) N 360 0 min 2,9 C 0,0 km/h (0 Bft)
18.05.2016 00:30 5,5 C 5,2 C 83 % 1017,2 hPa 0,0 mm 0,3 km/h (0 Bft) SO 135 0 min 2,8 C 0,0 km/h (0 Bft)
18.05.2016 00:35 5,4 C 5,1 C 84 % 1017,2 hPa 0,0 mm 0,0 km/h (0 Bft) O-NO 67 0 min 2,9 C 0,0 km/h (0 Bft)
18.05.2016 00:40 5,1 C 4,9 C 84 % 1017,2 hPa 0,0 mm 0,0 km/h (0 Bft) NO 45 0 min 2,6 C 0,0 km/h (0 Bft)
18.05.2016 00:45 5,2 C 4,9 C 84 % 1017,2 hPa 0,0 mm 0,0 km/h (0 Bft) S-SO 157 0 min 2,7 C 0,0 km/h (0 Bft)
18.05.2016 00:50 5,1 C 4,8 C 84 % 1017,2 hPa 0,0 mm 0,0 km/h (0 Bft) W 270 0 min 2,6 C 0,0 km/h (0 Bft)
18.05.2016 00:55 4,8 C 4,5 C 84 % 1017,0 hPa 0,0 mm 0,0 km/h (0 Bft) N-NO 22 0 min 2,3 C 0,0 km/h (0 Bft)
18.05.2016 01:00 4,6 C 4,3 C 83 % 1017,0 hPa 0,0 mm 0,0 km/h (0 Bft) O 90 0 min 2,0 C 0,0 km/h (0 Bft)
18.05.2016 01:05 4,6 C 4,3 C 84 % 1017,0 hPa 0,0 mm 0,0 km/h (0 Bft) N 360 0 min 2,1 C 0,0 km/h (0 Bft)
18.05.2016 01:10 4,3 C 4,0 C 83 % 1017,0 hPa 0,0 mm 0,0 km/h (0 Bft) N-NO 22 0 min 1,7 C 0,0 km/h (0 Bft)
18.05.2016 01:15 4,5 C 4,1 C 85 % 1016,9 hPa 0,0 mm 0,0 km/h (0 Bft) O-SO 112 0 min 2,2 C 0,0 km/h (0 Bft)
18.05.2016 01:20 4,3 C 4,0 C 86 % 1016,9 hPa 0,0 mm 0,0 km/h (0 Bft) N-NO 22 0 min 2,2 C 0,0 km/h (0 Bft)
18.05.2016 01:25 4,1 C 3,8 C 85 % 1016,9 hPa 0,0 mm 0,0 km/h (0 Bft) SO 135 0 min 1,8 C 0,0 km/h (0 Bft)
18.05.2016 01:30 4,3 C 3,9 C 86 % 1016,9 hPa 0,0 mm 0,0 km/h (0 Bft) O 90 0 min 2,2 C 0,0 km/h (0 Bft)
18.05.2016 01:35 3,9 C 3,6 C 86 % 1016,8 hPa 0,0 mm 0,0 km/h (0 Bft) NO 45 0 min 1,8 C 0,0 km/h (0 Bft)
18.05.2016 01:40 4,0 C 3,6 C 86 % 1016,8 hPa 0,0 mm 0,0 km/h (0 Bft) S-SO 157 0 min 1,9 C 0,0 km/h (0 Bft)
18.05.2016 01:45 3,7 C 3,3 C 86 % 1016,8 hPa 0,0 mm 0,0 km/h (0 Bft) N 360 0 min 1,6 C 0,0 km/h (0 Bft)
18.05.2016 01:50 3,9 C 3,4 C 86 % 1016,8 hPa 0,0 mm 0,0 km/h (0 Bft) SO 135 0 min 1,8 C 0,0 km/h (0 Bft)
18.05.2016 01:51 3,5 C 3,2 C 86 % 1016,4 hPa 0,0 mm 0,0 km/h (0 Bft) N 360 0 min 1,4 C 0,0 km/h (0 Bft)
18.05.2016 01:53 3,5 C 3,2 C 86 % 1016,4 hPa 0,0 mm 0,0 km/h (0 Bft) N 360 0 min 1,4 C 0,0 km/h (0 Bft)
18.05.2016 01:55 3,5 C 3,2 C 86 % 1016,4 hPa 0,0 mm 0,0 km/h (0 Bft) N 360 0 min 1,4 C 0,0 km/h (0 Bft)
18.05.2016 02:00 3,5 C 3,1 C 86 % 1016,4 hPa 0,0 mm 0,0 km/h (0 Bft) W 270 0 min 1,4 C 0,0 km/h (0 Bft)
18.05.2016 02:05 3,4 C 3,0 C 86 % 1016,4 hPa 0,0 mm 0,0 km/h (0 Bft) NW 315 0 min 1,3 C 0,0 km/h (0 Bft)
18.05.2016 02:10 3,3 C 2,9 C 86 % 1016,4 hPa 0,0 mm 0,0 km/h (0 Bft) NW 315 0 min 1,2 C 0,0 km/h (0 Bft)
18.05.2016 02:15 3,2 C 2,8 C 86 % 1016,4 hPa 0,0 mm 0,0 km/h (0 Bft) N-NO 22 0 min 1,1 C 0,0 km/h (0 Bft)
18.05.2016 02:20 3,2 C 2,8 C 86 % 1016,4 hPa 0,0 mm 0,0 km/h (0 Bft) N-NO 22 0 min 1,1 C 0,0 km/h (0 Bft)
18.05.2016 02:25 3,2 C 2,8 C 86 % 1016,4 hPa 0,0 mm 0,0 km/h (0 Bft) NO 45 0 min 1,1 C 0,0 km/h (0 Bft)
18.05.2016 02:30 3,4 C 3,0 C 86 % 1016,4 hPa 0,0 mm 0,0 km/h (0 Bft) O-NO 67 0 min 1,3 C 0,0 km/h (0 Bft)
18.05.2016 02:35 3,3 C 3,0 C 86 % 1016,2 hPa 0,0 mm 0,0 km/h (0 Bft) N-NO 22 0 min 1,2 C 0,0 km/h (0 Bft)
18.05.2016 02:40 3,2 C 3,0 C 86 % 1016,2 hPa 0,0 mm 0,0 km/h (0 Bft) N-NO 22 0 min 1,1 C 0,0 km/h (0 Bft)
18.05.2016 02:45 3,1 C 2,9 C 86 % 1016,2 hPa 0,0 mm 0,0 km/h (0 Bft) NW 315 0 min 1,0 C 0,0 km/h (0 Bft)
18.05.2016 02:50 3,2 C 2,9 C 86 % 1016,2 hPa 0,0 mm 0,0 km/h (0 Bft) NW 315 0 min 1,1 C 0,0 km/h (0 Bft)
18.05.2016 02:55 3,1 C 2,8 C 87 % 1016,1 hPa 0,0 mm 0,0 km/h (0 Bft) NW 315 0 min 1,2 C 0,0 km/h (0 Bft)
18.05.2016 03:00 3,0 C 2,7 C 87 % 1016,1 hPa 0,0 mm 0,0 km/h (0 Bft) NW 315 0 min 1,1 C 0,0 km/h (0 Bft)
18.05.2016 03:05 3,1 C 2,7 C 87 % 1016,1 hPa 0,0 mm 0,0 km/h (0 Bft) N-NW 337 0 min 1,2 C 0,0 km/h (0 Bft)
18.05.2016 03:10 3,4 C 3,0 C 87 % 1016,1 hPa 0,0 mm 0,0 km/h (0 Bft) O-NO 67 0 min 1,4 C 0,0 km/h (0 Bft)
18.05.2016 03:15 3,2 C 2,9 C 87 % 1016,0 hPa 0,0 mm 0,0 km/h (0 Bft) W-NW 292 0 min 1,2 C 0,0 km/h (0 Bft)
18.05.2016 03:20 3,2 C 2,9 C 87 % 1016,0 hPa 0,0 mm 0,0 km/h (0 Bft) O-NO 67 0 min 1,2 C 0,0 km/h (0 Bft)
18.05.2016 03:25 3,3 C 3,1 C 87 % 1016,0 hPa 0,0 mm 0,0 km/h (0 Bft) SW 225 0 min 1,3 C 0,0 km/h (0 Bft)
18.05.2016 03:30 3,5 C 3,2 C 88 % 1016,0 hPa 0,0 mm 0,0 km/h (0 Bft) O-NO 67 0 min 1,7 C 0,0 km/h (0 Bft)
18.05.2016 03:35 3,6 C 3,3 C 88 % 1015,9 hPa 0,0 mm 0,0 km/h (0 Bft) NW 315 0 min 1,8 C 0,0 km/h (0 Bft)
18.05.2016 03:40 3,6 C 3,4 C 88 % 1015,9 hPa 0,0 mm 0,0 km/h (0 Bft) NW 315 0 min 1,8 C 0,0 km/h (0 Bft)
18.05.2016 03:45 3,6 C 3,4 C 88 % 1015,9 hPa 0,0 mm 0,0 km/h (0 Bft) NW 315 0 min 1,8 C 0,0 km/h (0 Bft)
18.05.2016 03:50 3,8 C 3,6 C 88 % 1015,9 hPa 0,0 mm 0,0 km/h (0 Bft) O-SO 112 0 min 2,0 C 0,0 km/h (0 Bft)
18.05.2016 03:55 3,7 C 3,5 C 88 % 1015,9 hPa 0,0 mm 0,0 km/h (0 Bft) N-NW 337 0 min 1,9 C 0,0 km/h (0 Bft)
18.05.2016 04:00 3,7 C 3,5 C 88 % 1015,9 hPa 0,0 mm 0,0 km/h (0 Bft) N-NW 337 0 min 1,9 C 0,0 km/h (0 Bft)
18.05.2016 04:05 3,8 C 3,5 C 88 % 1015,9 hPa 0,0 mm 0,0 km/h (0 Bft) O-NO 67 0 min 2,0 C 0,0 km/h (0 Bft)
18.05.2016 04:10 3,6 C 3,4 C 88 % 1015,9 hPa 0,0 mm 0,0 km/h (0 Bft) N-NO 22 0 min 1,8 C 0,0 km/h (0 Bft)
18.05.2016 04:15 3,5 C 3,3 C 88 % 1015,7 hPa 0,0 mm 0,0 km/h (0 Bft) N-NO 22 0 min 1,7 C 0,0 km/h (0 Bft)
18.05.2016 04:20 3,8 C 3,5 C 89 % 1015,7 hPa 0,0 mm 0,0 km/h (0 Bft) NO 45 0 min 2,2 C 0,0 km/h (0 Bft)
18.05.2016 04:25 3,7 C 3,5 C 89 % 1015,7 hPa 0,0 mm 0,0 km/h (0 Bft) W 270 0 min 2,1 C 0,0 km/h (0 Bft)
18.05.2016 04:30 3,6 C 3,4 C 88 % 1015,7 hPa 0,0 mm 0,0 km/h (0 Bft) W-NW 292 0 min 1,8 C 0,0 km/h (0 Bft)
18.05.2016 04:35 3,5 C 3,3 C 88 % 1015,5 hPa 0,0 mm 0,0 km/h (0 Bft) NW 315 0 min 1,7 C 0,0 km/h (0 Bft)
18.05.2016 04:40 3,6 C 3,4 C 88 % 1015,5 hPa 0,0 mm 0,0 km/h (0 Bft) W-NW 292 0 min 1,8 C 0,0 km/h (0 Bft)
18.05.2016 04:45 3,8 C 3,5 C 89 % 1015,5 hPa 0,0 mm 0,0 km/h (0 Bft) O-SO 112 0 min 2,2 C 0,0 km/h (0 Bft)
18.05.2016 04:50 3,6 C 3,4 C 89 % 1015,5 hPa 0,0 mm 0,0 km/h (0 Bft) N-NO 22 0 min 2,0 C 0,0 km/h (0 Bft)
18.05.2016 04:51 3,6 C 3,4 C 88 % 1015,4 hPa 0,0 mm 0,0 km/h (0 Bft) W 270 0 min 1,8 C 0,0 km/h (0 Bft)
18.05.2016 04:54 3,6 C 3,4 C 88 % 1015,4 hPa 0,0 mm 0,0 km/h (0 Bft) W 270 0 min 1,8 C 0,0 km/h (0 Bft)
18.05.2016 04:55 3,6 C 3,4 C 88 % 1015,4 hPa 0,0 mm 0,0 km/h (0 Bft) W 270 0 min 1,8 C 0,0 km/h (0 Bft)
18.05.2016 05:00 3,5 C 3,3 C 88 % 1015,4 hPa 0,0 mm 0,0 km/h (0 Bft) NW 315 0 min 1,7 C 0,0 km/h (0 Bft)
18.05.2016 05:05 3,5 C 3,3 C 89 % 1015,4 hPa 0,0 mm 0,0 km/h (0 Bft) NO 45 0 min 1,9 C 0,0 km/h (0 Bft)
18.05.2016 05:10 3,5 C 3,3 C 89 % 1015,4 hPa 0,0 mm 0,0 km/h (0 Bft) W-SW 247 0 min 1,9 C 0,0 km/h (0 Bft)
18.05.2016 05:15 3,6 C 3,3 C 89 % 1015,1 hPa 0,0 mm 0,0 km/h (0 Bft) N-NO 22 0 min 2,0 C 0,0 km/h (0 Bft)
18.05.2016 05:20 3,6 C 3,4 C 89 % 1015,1 hPa 0,0 mm 0,0 km/h (0 Bft) W-SW 247 0 min 2,0 C 0,0 km/h (0 Bft)
18.05.2016 05:25 3,7 C 3,4 C 89 % 1015,1 hPa 0,0 mm 0,0 km/h (0 Bft) N-NO 22 0 min 2,1 C 0,0 km/h (0 Bft)
18.05.2016 05:30 3,7 C 3,5 C 89 % 1015,1 hPa 0,0 mm 0,0 km/h (0 Bft) NO 45 0 min 2,1 C 0,0 km/h (0 Bft)
18.05.2016 05:35 4,0 C 3,7 C 89 % 1015,0 hPa 0,0 mm 0,0 km/h (0 Bft) O 90 0 min 2,4 C 0,0 km/h (0 Bft)
18.05.2016 05:40 3,9 C 3,7 C 89 % 1015,0 hPa 0,0 mm 0,0 km/h (0 Bft) N-NW 337 0 min 2,3 C 0,0 km/h (0 Bft)
18.05.2016 05:45 4,0 C 3,8 C 89 % 1015,0 hPa 0,0 mm 0,0 km/h (0 Bft) S-SW 202 0 min 2,4 C 0,0 km/h (0 Bft)
18.05.2016 05:50 4,0 C 3,8 C 89 % 1015,0 hPa 0,0 mm 0,0 km/h (0 Bft) NW 315 0 min 2,4 C 0,0 km/h (0 Bft)
18.05.2016 05:55 4,0 C 3,9 C 89 % 1015,1 hPa 0,0 mm 0,0 km/h (0 Bft) NW 315 0 min 2,4 C 0,0 km/h (0 Bft)
18.05.2016 06:00 4,1 C 4,0 C 89 % 1015,1 hPa 0,0 mm 0,0 km/h (0 Bft) NO 45 0 min 2,5 C 0,0 km/h (0 Bft)
18.05.2016 06:05 4,3 C 4,1 C 89 % 1015,1 hPa 0,0 mm 0,0 km/h (0 Bft) NO 45 0 min 2,7 C 0,0 km/h (0 Bft)
18.05.2016 06:10 4,3 C 4,1 C 89 % 1015,1 hPa 0,0 mm 0,0 km/h (0 Bft) N-NO 22 0 min 2,7 C 0,0 km/h (0 Bft)
18.05.2016 06:15 4,4 C 4,2 C 89 % 1014,9 hPa 0,0 mm 0,0 km/h (0 Bft) NW 315 0 min 2,7 C 0,0 km/h (0 Bft)
18.05.2016 06:20 4,5 C 4,3 C 89 % 1014,9 hPa 0,0 mm 0,0 km/h (0 Bft) N-NW 337 0 min 2,8 C 0,0 km/h (0 Bft)
18.05.2016 06:25 4,6 C 4,4 C 89 % 1014,9 hPa 0,0 mm 0,0 km/h (0 Bft) W 270 0 min 2,9 C 0,0 km/h (0 Bft)
18.05.2016 06:30 4,6 C 4,5 C 89 % 1014,9 hPa 0,0 mm 0,0 km/h (0 Bft) NW 315 0 min 2,9 C 0,0 km/h (0 Bft)
18.05.2016 06:35 4,7 C 4,5 C 89 % 1015,1 hPa 0,0 mm 0,0 km/h (0 Bft) N-NO 22 0 min 3,0 C 0,0 km/h (0 Bft)
18.05.2016 06:40 4,8 C 4,6 C 89 % 1015,1 hPa 0,0 mm 0,0 km/h (0 Bft) NW 315 0 min 3,1 C 0,0 km/h (0 Bft)
18.05.2016 06:45 5,2 C 5,1 C 88 % 1015,1 hPa 0,0 mm 0,0 km/h (0 Bft) NO 45 0 min 3,4 C 0,0 km/h (0 Bft)
18.05.2016 06:50 5,4 C 5,6 C 88 % 1015,1 hPa 0,0 mm 0,0 km/h (0 Bft) N 360 0 min 3,6 C 0,0 km/h (0 Bft)
18.05.2016 06:55 5,6 C 6,0 C 88 % 1015,1 hPa 0,0 mm 0,0 km/h (0 Bft) NO 45 0 min 3,8 C 0,0 km/h (0 Bft)
18.05.2016 07:00 5,8 C 6,2 C 88 % 1015,1 hPa 0,0 mm 0,0 km/h (0 Bft) NO 45 0 min 4,0 C 0,0 km/h (0 Bft)
18.05.2016 07:05 6,2 C 7,5 C 88 % 1015,1 hPa 0,0 mm 0,0 km/h (0 Bft) NO 45 0 min 4,4 C 0,0 km/h (0 Bft)
18.05.2016 07:10 6,3 C 7,5 C 87 % 1015,1 hPa 0,0 mm 0,0 km/h (0 Bft) NO 45 0 min 4,3 C 0,0 km/h (0 Bft)
18.05.2016 07:15 6,3 C 7,9 C 87 % 1015,0 hPa 0,0 mm 0,0 km/h (0 Bft) NO 45 0 min 4,3 C 0,0 km/h (0 Bft)
18.05.2016 07:20 7,0 C 8,6 C 87 % 1015,0 hPa 0,0 mm 0,0 km/h (0 Bft) NW 315 0 min 5,0 C 0,0 km/h (0 Bft)
18.05.2016 07:25 8,0 C 11,7 C 86 % 1015,0 hPa 0,0 mm 0,0 km/h (0 Bft) N 360 5 min 5,8 C 0,0 km/h (0 Bft)
18.05.2016 07:30 7,9 C 12,4 C 85 % 1015,0 hPa 0,0 mm 0,0 km/h (0 Bft) O-SO 112 5 min 5,5 C 0,0 km/h (0 Bft)
18.05.2016 07:35 8,4 C 12,8 C 84 % 1015,4 hPa 0,0 mm 0,0 km/h (0 Bft) O 90 5 min 5,9 C 0,0 km/h (0 Bft)
18.05.2016 07:40 8,3 C 12,8 C 83 % 1015,4 hPa 0,0 mm 0,0 km/h (0 Bft) NO 45 5 min 5,6 C 0,0 km/h (0 Bft)
18.05.2016 07:45 8,9 C 13,0 C 82 % 1015,4 hPa 0,0 mm 0,0 km/h (0 Bft) O-SO 112 5 min 6,0 C 0,0 km/h (0 Bft)
18.05.2016 07:50 8,9 C 13,3 C 81 % 1015,4 hPa 0,0 mm 0,0 km/h (0 Bft) O 90 5 min 5,8 C 0,0 km/h (0 Bft)
18.05.2016 07:51 9,1 C 13,1 C 80 % 1015,3 hPa 0,0 mm 0,0 km/h (0 Bft) NO 45 1 min 5,8 C 0,0 km/h (0 Bft)
18.05.2016 07:55 9,1 C 13,1 C 80 % 1015,3 hPa 0,0 mm 0,0 km/h (0 Bft) NO 45 4 min 5,8 C 0,0 km/h (0 Bft)
18.05.2016 08:00 9,2 C 13,1 C 79 % 1015,3 hPa 0,0 mm 0,0 km/h (0 Bft) NO 45 5 min 5,8 C 0,0 km/h (0 Bft)
18.05.2016 08:05 10,2 C 13,5 C 79 % 1015,3 hPa 0,0 mm 0,0 km/h (0 Bft) NO 45 5 min 6,7 C 0,0 km/h (0 Bft)
18.05.2016 08:10 10,1 C 13,4 C 79 % 1015,3 hPa 0,0 mm 0,0 km/h (0 Bft) NO 45 5 min 6,6 C 0,0 km/h (0 Bft)
18.05.2016 08:15 10,5 C 13,3 C 78 % 1015,4 hPa 0,0 mm 0,3 km/h (0 Bft) N-NO 22 5 min 6,8 C 0,0 km/h (0 Bft)
18.05.2016 08:20 10,5 C 13,3 C 77 % 1015,4 hPa 0,0 mm 0,0 km/h (0 Bft) NO 45 5 min 6,6 C 0,0 km/h (0 Bft)
18.05.2016 08:25 11,0 C 13,6 C 76 % 1015,4 hPa 0,0 mm 0,0 km/h (0 Bft) NW 315 5 min 6,9 C 0,0 km/h (0 Bft)
18.05.2016 08:30 11,0 C 13,7 C 76 % 1015,4 hPa 0,0 mm 0,3 km/h (0 Bft) N-NW 337 5 min 6,9 C 0,0 km/h (0 Bft)
18.05.2016 08:35 10,5 C 13,6 C 75 % 1015,5 hPa 0,0 mm 0,3 km/h (0 Bft) NO 45 5 min 6,3 C 0,0 km/h (0 Bft)
18.05.2016 08:40 11,1 C 13,8 C 75 % 1015,5 hPa 0,0 mm 0,9 km/h (0 Bft) W 270 5 min 6,8 C 3,0 km/h (1 Bft)
18.05.2016 08:45 11,7 C 14,2 C 74 % 1015,5 hPa 0,0 mm 1,5 km/h (1 Bft) NW 315 5 min 7,2 C 0,0 km/h (0 Bft)
18.05.2016 08:50 13,0 C 15,5 C 73 % 1015,5 hPa 0,0 mm 0,9 km/h (0 Bft) W 270 5 min 8,3 C 0,0 km/h (0 Bft)
18.05.2016 08:55 13,1 C 16,3 C 72 % 1015,4 hPa 0,0 mm 2,4 km/h (1 Bft) NO 45 5 min 8,2 C 7,2 km/h (2 Bft)
18.05.2016 09:00 14,1 C 17,1 C 72 % 1015,4 hPa 0,0 mm 2,1 km/h (1 Bft) NO 45 5 min 9,1 C 0,0 km/h (0 Bft)
18.05.2016 09:05 13,3 C 18,0 C 69 % 1015,4 hPa 0,0 mm 1,8 km/h (1 Bft) O-NO 67 5 min 7,7 C 3,0 km/h (1 Bft)
18.05.2016 09:10 13,5 C 18,8 C 68 % 1015,4 hPa 0,0 mm 1,2 km/h (1 Bft) SO 135 5 min 7,7 C 0,0 km/h (0 Bft)
18.05.2016 09:15 13,9 C 20,1 C 66 % 1015,6 hPa 0,0 mm 2,1 km/h (1 Bft) W-NW 292 5 min 7,7 C 12,2 km/h (2 Bft)
18.05.2016 09:20 13,9 C 19,7 C 65 % 1015,6 hPa 0,0 mm 2,4 km/h (1 Bft) S 180 5 min 7,4 C 6,3 km/h (2 Bft)
18.05.2016 09:25 15,0 C 20,1 C 63 % 1015,6 hPa 0,0 mm 3,6 km/h (1 Bft) N-NO 22 5 min 8,0 C 11,6 km/h (2 Bft)
18.05.2016 09:30 14,9 C 20,0 C 63 % 1015,6 hPa 0,0 mm 4,5 km/h (1 Bft) NO 45 5 min 7,9 C 7,2 km/h (2 Bft)
18.05.2016 09:35 14,9 C 20,5 C 63 % 1015,8 hPa 0,0 mm 4,5 km/h (1 Bft) N-NW 337 5 min 7,9 C 4,5 km/h (1 Bft)
18.05.2016 09:40 15,4 C 20,7 C 63 % 1015,8 hPa 0,0 mm 5,4 km/h (1 Bft) N-NW 337 5 min 8,4 C 11,3 km/h (2 Bft)
18.05.2016 09:45 15,6 C 20,7 C 62 % 1015,8 hPa 0,0 mm 6,0 km/h (2 Bft) N 360 5 min 8,3 C 12,5 km/h (3 Bft)
18.05.2016 09:50 15,9 C 20,8 C 61 % 1015,8 hPa 0,0 mm 4,8 km/h (1 Bft) NW 315 5 min 8,4 C 8,6 km/h (2 Bft)
18.05.2016 09:55 15,4 C 20,2 C 60 % 1015,6 hPa 0,0 mm 6,3 km/h (2 Bft) N-NW 337 5 min 7,7 C 19,7 km/h (3 Bft)
18.05.2016 10:00 16,3 C 20,4 C 60 % 1015,6 hPa 0,0 mm 6,9 km/h (2 Bft) W-NW 292 5 min 8,5 C 8,3 km/h (2 Bft)
18.05.2016 10:05 15,0 C 21,0 C 59 % 1015,6 hPa 0,0 mm 4,5 km/h (1 Bft) NO 45 5 min 7,1 C 8,9 km/h (2 Bft)
18.05.2016 10:10 14,9 C 20,6 C 58 % 1015,6 hPa 0,0 mm 4,8 km/h (1 Bft) O 90 5 min 6,7 C 12,2 km/h (2 Bft)
18.05.2016 10:15 15,8 C 20,9 C 59 % 1015,7 hPa 0,0 mm 4,2 km/h (1 Bft) O-NO 67 5 min 7,8 C 0,0 km/h (0 Bft)
18.05.2016 10:20 15,7 C 20,7 C 59 % 1015,7 hPa 0,0 mm 3,9 km/h (1 Bft) N-NO 22 5 min 7,7 C 6,0 km/h (2 Bft)
18.05.2016 10:25 14,8 C 18,9 C 59 % 1015,7 hPa 0,0 mm 6,0 km/h (2 Bft) N-NW 337 5 min 6,9 C 5,4 km/h (1 Bft)
18.05.2016 10:30 14,7 C 18,1 C 58 % 1015,7 hPa 0,0 mm 5,7 km/h (1 Bft) NW 315 5 min 6,5 C 6,6 km/h (2 Bft)
18.05.2016 10:35 14,6 C 17,4 C 58 % 1015,6 hPa 0,0 mm 6,0 km/h (2 Bft) NW 315 5 min 6,4 C 8,6 km/h (2 Bft)
18.05.2016 10:40 15,2 C 17,4 C 59 % 1015,6 hPa 0,0 mm 6,0 km/h (2 Bft) N 360 5 min 7,2 C 4,2 km/h (1 Bft)
18.05.2016 10:45 15,9 C 18,2 C 58 % 1015,6 hPa 0,0 mm 4,2 km/h (1 Bft) N-NO 22 5 min 7,6 C 6,0 km/h (2 Bft)
18.05.2016 10:50 16,1 C 18,9 C 58 % 1015,6 hPa 0,0 mm 4,8 km/h (1 Bft) NO 45 5 min 7,8 C 6,0 km/h (2 Bft)
18.05.2016 10:51 17,1 C 20,1 C 58 % 1015,6 hPa 0,0 mm 6,0 km/h (2 Bft) N-NW 337 1 min 8,8 C 11,3 km/h (2 Bft)
18.05.2016 10:56 17,2 C 20,1 C 57 % 1015,6 hPa 0,0 mm 6,3 km/h (2 Bft) NW 315 5 min 8,6 C 4,5 km/h (1 Bft)
18.05.2016 11:00 17,2 C 20,1 C 57 % 1015,6 hPa 0,0 mm 6,3 km/h (2 Bft) NW 315 4 min 8,6 C 4,5 km/h (1 Bft)
18.05.2016 11:05 17,2 C 20,6 C 57 % 1015,6 hPa 0,0 mm 6,6 km/h (2 Bft) N-NO 22 5 min 8,6 C 16,1 km/h (3 Bft)
18.05.2016 11:10 17,1 C 20,6 C 56 % 1015,6 hPa 0,0 mm 5,1 km/h (1 Bft) N-NO 22 5 min 8,3 C 10,7 km/h (2 Bft)
18.05.2016 11:15 16,7 C 20,3 C 55 % 1015,4 hPa 0,0 mm 8,6 km/h (2 Bft) NW 315 5 min 7,6 C 14,3 km/h (3 Bft)
18.05.2016 11:20 17,1 C 20,0 C 56 % 1015,4 hPa 0,0 mm 9,2 km/h (2 Bft) W-SW 247 5 min 8,3 C 0,0 km/h (0 Bft)
18.05.2016 11:25 17,4 C 20,6 C 56 % 1015,4 hPa 0,0 mm 6,9 km/h (2 Bft) N-NW 337 5 min 8,5 C 15,2 km/h (3 Bft)
18.05.2016 11:30 17,8 C 20,4 C 56 % 1015,4 hPa 0,0 mm 7,2 km/h (2 Bft) NO 45 5 min 8,9 C 14,6 km/h (3 Bft)
18.05.2016 11:35 18,1 C 20,5 C 56 % 1015,4 hPa 0,0 mm 9,2 km/h (2 Bft) NW 315 5 min 9,2 C 9,5 km/h (2 Bft)
18.05.2016 11:40 18,2 C 20,5 C 56 % 1015,4 hPa 0,0 mm 8,0 km/h (2 Bft) N-NO 22 5 min 9,3 C 9,2 km/h (2 Bft)
18.05.2016 11:45 17,9 C 21,1 C 56 % 1015,4 hPa 0,0 mm 7,2 km/h (2 Bft) W 270 5 min 9,0 C 4,8 km/h (1 Bft)
18.05.2016 11:50 18,2 C 21,2 C 55 % 1015,4 hPa 0,0 mm 7,2 km/h (2 Bft) W 270 5 min 9,0 C 16,1 km/h (3 Bft)
18.05.2016 11:55 17,1 C 20,9 C 54 % 1015,6 hPa 0,0 mm 7,7 km/h (2 Bft) O-SO 112 5 min 7,7 C 7,2 km/h (2 Bft)
18.05.2016 12:00 17,1 C 21,0 C 55 % 1015,6 hPa 0,0 mm 7,7 km/h (2 Bft) N-NO 22 5 min 8,0 C 17,6 km/h (3 Bft)
18.05.2016 12:05 17,0 C 20,2 C 55 % 1015,6 hPa 0,0 mm 7,5 km/h (2 Bft) N 360 5 min 7,9 C 8,0 km/h (2 Bft)
18.05.2016 12:10 16,2 C 19,0 C 54 % 1015,6 hPa 0,0 mm 8,3 km/h (2 Bft) S-SW 202 5 min 6,9 C 8,3 km/h (2 Bft)
18.05.2016 12:15 17,2 C 19,6 C 56 % 1015,2 hPa 0,0 mm 7,2 km/h (2 Bft) NW 315 5 min 8,3 C 13,4 km/h (3 Bft)
18.05.2016 12:20 16,7 C 19,2 C 55 % 1015,2 hPa 0,0 mm 6,9 km/h (2 Bft) N-NW 337 5 min 7,6 C 6,9 km/h (2 Bft)
18.05.2016 12:25 16,2 C 19,3 C 55 % 1015,2 hPa 0,0 mm 7,7 km/h (2 Bft) N-NW 337 5 min 7,2 C 19,1 km/h (3 Bft)
18.05.2016 12:30 16,5 C 18,8 C 55 % 1015,2 hPa 0,0 mm 7,7 km/h (2 Bft) W-NW 292 5 min 7,4 C 6,3 km/h (2 Bft)
18.05.2016 12:35 15,8 C 18,2 C 55 % 1015,1 hPa 0,0 mm 5,7 km/h (1 Bft) O-SO 112 5 min 6,8 C 6,0 km/h (2 Bft)
18.05.2016 12:40 16,6 C 17,8 C 55 % 1015,1 hPa 0,0 mm 4,2 km/h (1 Bft) NO 45 0 min 7,5 C 11,9 km/h (2 Bft)
18.05.2016 12:45 16,3 C 18,2 C 54 % 1015,1 hPa 0,0 mm 5,1 km/h (1 Bft) NO 45 0 min 7,0 C 3,9 km/h (1 Bft)
18.05.2016 12:50 17,9 C 18,4 C 54 % 1015,1 hPa 0,0 mm 7,2 km/h (2 Bft) NO 45 0 min 8,5 C 17,3 km/h (3 Bft)
18.05.2016 12:55 16,7 C 19,0 C 53 % 1014,6 hPa 0,0 mm 9,8 km/h (2 Bft) O-NO 67 5 min 7,1 C 18,8 km/h (3 Bft)
18.05.2016 13:00 18,7 C 19,2 C 52 % 1014,6 hPa 0,0 mm 11,0 km/h (2 Bft) W-NW 292 0 min 8,6 C 9,8 km/h (2 Bft)
18.05.2016 13:05 17,6 C 19,4 C 51 % 1014,6 hPa 0,0 mm 8,3 km/h (2 Bft) O-NO 67 0 min 7,3 C 5,7 km/h (1 Bft)
18.05.2016 13:10 16,9 C 19,4 C 52 % 1014,6 hPa 0,0 mm 5,4 km/h (1 Bft) W-NW 292 5 min 7,0 C 8,9 km/h (2 Bft)
18.05.2016 13:15 17,9 C 19,2 C 50 % 1014,2 hPa 0,0 mm 6,6 km/h (2 Bft) S-SW 202 0 min 7,3 C 19,1 km/h (3 Bft)
18.05.2016 13:20 19,6 C 20,2 C 51 % 1014,2 hPa 0,0 mm 8,6 km/h (2 Bft) N-NW 337 0 min 9,2 C 9,5 km/h (2 Bft)
18.05.2016 13:25 19,8 C 21,5 C 49 % 1014,2 hPa 0,0 mm 10,7 km/h (2 Bft) N-NW 337 0 min 8,8 C 22,4 km/h (4 Bft)
18.05.2016 13:30 19,4 C 21,5 C 50 % 1014,2 hPa 0,0 mm 10,7 km/h (2 Bft) N-NW 337 0 min 8,7 C 6,3 km/h (2 Bft)
18.05.2016 13:35 18,9 C 22,3 C 50 % 1014,0 hPa 0,0 mm 7,2 km/h (2 Bft) N-NO 22 5 min 8,2 C 9,8 km/h (2 Bft)
18.05.2016 13:40 19,8 C 22,8 C 50 % 1014,0 hPa 0,0 mm 6,0 km/h (2 Bft) O-NO 67 5 min 9,1 C 4,2 km/h (1 Bft)
18.05.2016 13:45 20,6 C 23,4 C 49 % 1014,0 hPa 0,0 mm 8,3 km/h (2 Bft) N-NW 337 5 min 9,5 C 10,4 km/h (2 Bft)
18.05.2016 13:50 20,1 C 23,4 C 49 % 1014,0 hPa 0,0 mm 7,2 km/h (2 Bft) W-SW 247 5 min 9,0 C 5,1 km/h (1 Bft)
18.05.2016 13:55 19,4 C 23,1 C 49 % 1013,9 hPa 0,0 mm 6,9 km/h (2 Bft) NO 45 5 min 8,4 C 17,3 km/h (3 Bft)
18.05.2016 13:56 19,6 C 23,0 C 48 % 1013,9 hPa 0,0 mm 6,9 km/h (2 Bft) O-NO 67 1 min 8,3 C 6,9 km/h (2 Bft)
18.05.2016 13:57 19,6 C 23,0 C 48 % 1013,9 hPa 0,0 mm 6,9 km/h (2 Bft) O-NO 67 1 min 8,3 C 6,9 km/h (2 Bft)
18.05.2016 14:00 19,6 C 23,0 C 48 % 1013,9 hPa 0,0 mm 6,9 km/h (2 Bft) O-NO 67 3 min 8,3 C 6,9 km/h (2 Bft)
18.05.2016 14:05 19,5 C 22,5 C 49 % 1013,9 hPa 0,0 mm 6,3 km/h (2 Bft) N-NW 337 5 min 8,5 C 3,6 km/h (1 Bft)
18.05.2016 14:10 19,8 C 22,6 C 49 % 1013,9 hPa 0,0 mm 6,3 km/h (2 Bft) NO 45 5 min 8,8 C 13,1 km/h (3 Bft)
18.05.2016 14:15 18,9 C 22,3 C 50 % 1013,6 hPa 0,0 mm 9,5 km/h (2 Bft) N-NO 22 5 min 8,2 C 22,7 km/h (4 Bft)
18.05.2016 14:20 18,4 C 21,5 C 48 % 1013,6 hPa 0,0 mm 10,1 km/h (2 Bft) N-NO 22 5 min 7,2 C 14,9 km/h (3 Bft)
18.05.2016 14:25 18,7 C 21,4 C 48 % 1013,6 hPa 0,0 mm 8,9 km/h (2 Bft) N-NO 22 5 min 7,5 C 13,1 km/h (3 Bft)
18.05.2016 14:30 18,5 C 20,8 C 48 % 1013,6 hPa 0,0 mm 8,9 km/h (2 Bft) NW 315 5 min 7,3 C 8,3 km/h (2 Bft)
18.05.2016 14:35 19,5 C 21,4 C 50 % 1013,4 hPa 0,0 mm 8,6 km/h (2 Bft) NO 45 0 min 8,8 C 15,2 km/h (3 Bft)
18.05.2016 14:40 18,6 C 22,0 C 50 % 1013,4 hPa 0,0 mm 9,5 km/h (2 Bft) W-SW 247 5 min 8,0 C 5,7 km/h (1 Bft)
18.05.2016 14:45 18,1 C 21,5 C 50 % 1013,4 hPa 0,0 mm 11,6 km/h (2 Bft) NO 45 5 min 7,5 C 12,8 km/h (3 Bft)
18.05.2016 14:50 17,0 C 20,0 C 50 % 1013,4 hPa 0,0 mm 12,2 km/h (2 Bft) O-NO 67 5 min 6,5 C 17,6 km/h (3 Bft)
18.05.2016 14:55 17,5 C 18,8 C 50 % 1013,1 hPa 0,0 mm 9,8 km/h (2 Bft) NO 45 0 min 7,0 C 4,8 km/h (1 Bft)
18.05.2016 15:00 18,9 C 19,8 C 50 % 1013,1 hPa 0,0 mm 8,9 km/h (2 Bft) O-SO 112 0 min 8,2 C 11,3 km/h (2 Bft)
18.05.2016 15:05 17,8 C 20,2 C 51 % 1013,1 hPa 0,0 mm 8,9 km/h (2 Bft) NO 45 5 min 7,5 C 20,6 km/h (4 Bft)
18.05.2016 15:10 17,7 C 19,4 C 50 % 1013,1 hPa 0,0 mm 10,7 km/h (2 Bft) NO 45 0 min 7,1 C 15,5 km/h (3 Bft)
18.05.2016 15:15 17,5 C 19,3 C 50 % 1012,9 hPa 0,0 mm 9,8 km/h (2 Bft) N-NO 22 0 min 7,0 C 4,5 km/h (1 Bft)
18.05.2016 15:20 17,8 C 19,8 C 50 % 1012,9 hPa 0,0 mm 7,7 km/h (2 Bft) N-NO 22 0 min 7,2 C 11,6 km/h (2 Bft)
18.05.2016 15:25 17,0 C 19,5 C 50 % 1012,9 hPa 0,0 mm 6,3 km/h (2 Bft) NO 45 5 min 6,5 C 6,6 km/h (2 Bft)
18.05.2016 15:30 17,3 C 19,4 C 51 % 1012,9 hPa 0,0 mm 5,1 km/h (1 Bft) W-SW 247 0 min 7,1 C 3,6 km/h (1 Bft)
18.05.2016 15:35 17,5 C 19,3 C 50 % 1012,8 hPa 0,0 mm 4,2 km/h (1 Bft) O 90 0 min 7,0 C 4,5 km/h (1 Bft)
18.05.2016 15:40 18,6 C 20,3 C 50 % 1012,8 hPa 0,0 mm 4,5 km/h (1 Bft) O-NO 67 0 min 8,0 C 4,2 km/h (1 Bft)
18.05.2016 15:45 19,7 C 22,2 C 50 % 1012,8 hPa 0,0 mm 7,5 km/h (2 Bft) NO 45 5 min 9,0 C 17,3 km/h (3 Bft)
18.05.2016 15:50 18,7 C 22,3 C 49 % 1012,8 hPa 0,0 mm 10,4 km/h (2 Bft) N 360 5 min 7,8 C 14,6 km/h (3 Bft)
18.05.2016 15:55 18,6 C 21,9 C 49 % 1012,6 hPa 0,0 mm 9,2 km/h (2 Bft) NW 315 5 min 7,7 C 10,7 km/h (2 Bft)
18.05.2016 16:00 18,2 C 21,3 C 50 % 1012,6 hPa 0,0 mm 7,5 km/h (2 Bft) NW 315 5 min 7,6 C 9,2 km/h (2 Bft)
18.05.2016 16:05 19,2 C 22,2 C 50 % 1012,6 hPa 0,0 mm 5,1 km/h (1 Bft) O-NO 67 5 min 8,5 C 0,0 km/h (0 Bft)
18.05.2016 16:10 18,7 C 22,7 C 50 % 1012,6 hPa 0,0 mm 5,4 km/h (1 Bft) NW 315 5 min 8,1 C 12,2 km/h (2 Bft)
18.05.2016 16:15 18,3 C 22,3 C 50 % 1012,3 hPa 0,0 mm 6,0 km/h (2 Bft) O-SO 112 5 min 7,7 C 10,7 km/h (2 Bft)
18.05.2016 16:20 18,4 C 22,5 C 49 % 1012,3 hPa 0,0 mm 6,9 km/h (2 Bft) N-NW 337 5 min 7,5 C 13,7 km/h (3 Bft)
18.05.2016 16:25 18,4 C 23,2 C 50 % 1012,3 hPa 0,0 mm 6,0 km/h (2 Bft) N-NO 22 5 min 7,8 C 8,0 km/h (2 Bft)
18.05.2016 16:30 18,5 C 23,2 C 49 % 1012,3 hPa 0,0 mm 5,7 km/h (1 Bft) O-NO 67 5 min 7,6 C 4,5 km/h (1 Bft)
18.05.2016 16:35 18,3 C 23,2 C 49 % 1012,0 hPa 0,0 mm 5,7 km/h (1 Bft) N 360 5 min 7,4 C 7,2 km/h (2 Bft)
18.05.2016 16:40 18,3 C 22,8 C 50 % 1012,0 hPa 0,0 mm 6,9 km/h (2 Bft) W 270 5 min 7,7 C 9,2 km/h (2 Bft)
18.05.2016 16:45 18,4 C 22,9 C 49 % 1012,0 hPa 0,0 mm 8,0 km/h (2 Bft) W-SW 247 5 min 7,5 C 7,2 km/h (2 Bft)
18.05.2016 16:50 18,3 C 22,9 C 49 % 1012,0 hPa 0,0 mm 6,6 km/h (2 Bft) O-NO 67 5 min 7,4 C 6,9 km/h (2 Bft)
18.05.2016 16:55 18,0 C 21,8 C 48 % 1011,9 hPa 0,0 mm 3,9 km/h (1 Bft) NW 315 5 min 6,8 C 4,5 km/h (1 Bft)
18.05.2016 16:56 17,8 C 21,2 C 49 % 1011,9 hPa 0,0 mm 3,6 km/h (1 Bft) W-NW 292 1 min 6,9 C 6,9 km/h (2 Bft)
18.05.2016 16:58 17,8 C 21,2 C 49 % 1011,9 hPa 0,0 mm 3,6 km/h (1 Bft) W-NW 292 2 min 6,9 C 6,9 km/h (2 Bft)
18.05.2016 17:00 17,8 C 21,2 C 49 % 1011,9 hPa 0,0 mm 3,6 km/h (1 Bft) W-NW 292 2 min 6,9 C 6,9 km/h (2 Bft)
18.05.2016 17:05 17,6 C 20,2 C 49 % 1011,9 hPa 0,0 mm 5,1 km/h (1 Bft) N-NO 22 5 min 6,8 C 14,0 km/h (3 Bft)
18.05.2016 17:10 17,6 C 19,6 C 49 % 1011,9 hPa 0,0 mm 7,7 km/h (2 Bft) N-NO 22 0 min 6,8 C 5,7 km/h (1 Bft)
18.05.2016 17:15 17,6 C 19,2 C 48 % 1011,8 hPa 0,0 mm 8,0 km/h (2 Bft) N-NW 337 0 min 6,5 C 6,0 km/h (2 Bft)
18.05.2016 17:20 17,8 C 19,2 C 48 % 1011,8 hPa 0,0 mm 6,9 km/h (2 Bft) N-NO 22 0 min 6,6 C 3,0 km/h (1 Bft)
18.05.2016 17:25 17,8 C 19,5 C 49 % 1011,8 hPa 0,0 mm 5,1 km/h (1 Bft) O-NO 67 0 min 6,9 C 6,3 km/h (2 Bft)
18.05.2016 17:30 17,8 C 19,6 C 49 % 1011,8 hPa 0,0 mm 4,5 km/h (1 Bft) O-NO 67 0 min 6,9 C 6,0 km/h (2 Bft)
18.05.2016 17:35 17,4 C 19,3 C 49 % 1011,6 hPa 0,0 mm 8,0 km/h (2 Bft) SW 225 0 min 6,6 C 19,1 km/h (3 Bft)
18.05.2016 17:40 17,4 C 18,9 C 49 % 1011,6 hPa 0,0 mm 10,1 km/h (2 Bft) N-NO 22 0 min 6,6 C 7,5 km/h (2 Bft)
18.05.2016 17:45 17,4 C 18,8 C 50 % 1011,6 hPa 0,0 mm 10,4 km/h (2 Bft) O-NO 67 0 min 6,9 C 10,4 km/h (2 Bft)
18.05.2016 17:50 17,3 C 18,7 C 49 % 1011,6 hPa 0,0 mm 8,9 km/h (2 Bft) O-NO 67 0 min 6,5 C 11,3 km/h (2 Bft)
18.05.2016 17:55 17,1 C 18,7 C 50 % 1011,6 hPa 0,0 mm 6,9 km/h (2 Bft) N-NW 337 0 min 6,6 C 7,7 km/h (2 Bft)
18.05.2016 18:00 17,5 C 19,1 C 50 % 1011,6 hPa 0,0 mm 5,7 km/h (1 Bft) O-NO 67 0 min 7,0 C 9,2 km/h (2 Bft)
18.05.2016 18:05 17,6 C 19,1 C 50 % 1011,6 hPa 0,0 mm 4,8 km/h (1 Bft) O-NO 67 0 min 7,1 C 8,6 km/h (2 Bft)
18.05.2016 18:10 17,1 C 18,9 C 50 % 1011,6 hPa 0,0 mm 6,3 km/h (2 Bft) NO 45 0 min 6,6 C 9,5 km/h (2 Bft)
18.05.2016 18:15 16,7 C 18,3 C 50 % 1011,4 hPa 0,0 mm 6,6 km/h (2 Bft) N 360 0 min 6,2 C 0,0 km/h (0 Bft)
18.05.2016 18:20 16,8 C 18,1 C 49 % 1011,4 hPa 0,0 mm 6,9 km/h (2 Bft) N-NO 22 0 min 6,0 C 9,8 km/h (2 Bft)
18.05.2016 18:25 16,5 C 17,6 C 50 % 1011,4 hPa 0,0 mm 5,4 km/h (1 Bft) N-NO 22 0 min 6,0 C 9,5 km/h (2 Bft)
18.05.2016 18:30 16,5 C 17,4 C 50 % 1011,4 hPa 0,0 mm 3,6 km/h (1 Bft) NO 45 0 min 6,0 C 0,0 km/h (0 Bft)
18.05.2016 18:35 16,2 C 17,3 C 50 % 1011,1 hPa 0,0 mm 2,1 km/h (1 Bft) O-NO 67 0 min 5,8 C 3,0 km/h (1 Bft)
18.05.2016 18:40 16,0 C 17,0 C 50 % 1011,1 hPa 0,0 mm 2,1 km/h (1 Bft) O-NO 67 0 min 5,6 C 0,0 km/h (0 Bft)
18.05.2016 18:45 15,8 C 16,7 C 53 % 1011,1 hPa 0,0 mm 1,8 km/h (1 Bft) NW 315 0 min 6,2 C 0,0 km/h (0 Bft)
18.05.2016 18:50 15,8 C 16,6 C 53 % 1011,1 hPa 0,0 mm 0,3 km/h (0 Bft) O-NO 67 0 min 6,2 C 0,0 km/h (0 Bft)
18.05.2016 18:55 15,4 C 16,5 C 54 % 1011,1 hPa 0,0 mm 0,3 km/h (0 Bft) O 90 0 min 6,1 C 0,0 km/h (0 Bft)
18.05.2016 19:00 15,2 C 16,3 C 55 % 1011,1 hPa 0,0 mm 0,6 km/h (0 Bft) O 90 0 min 6,2 C 0,0 km/h (0 Bft)
18.05.2016 19:05 15,1 C 15,9 C 55 % 1011,1 hPa 0,0 mm 0,3 km/h (0 Bft) O-SO 112 0 min 6,1 C 0,0 km/h (0 Bft)
18.05.2016 19:10 15,0 C 15,9 C 55 % 1011,1 hPa 0,0 mm 0,0 km/h (0 Bft) S 180 0 min 6,0 C 0,0 km/h (0 Bft)
18.05.2016 19:15 14,9 C 16,0 C 56 % 1011,0 hPa 0,0 mm 0,6 km/h (0 Bft) SO 135 0 min 6,2 C 4,2 km/h (1 Bft)
18.05.2016 19:20 14,8 C 15,8 C 56 % 1011,0 hPa 0,0 mm 1,2 km/h (1 Bft) O-NO 67 0 min 6,1 C 0,0 km/h (0 Bft)
18.05.2016 19:25 14,5 C 15,5 C 56 % 1011,0 hPa 0,0 mm 1,2 km/h (1 Bft) O 90 0 min 5,8 C 0,0 km/h (0 Bft)
18.05.2016 19:30 14,5 C 15,4 C 56 % 1011,0 hPa 0,0 mm 0,6 km/h (0 Bft) S 180 0 min 5,8 C 0,0 km/h (0 Bft)
18.05.2016 19:35 14,5 C 16,5 C 57 % 1011,0 hPa 0,0 mm 0,0 km/h (0 Bft) S-SO 157 0 min 6,1 C 0,0 km/h (0 Bft)
18.05.2016 19:40 14,3 C 16,9 C 56 % 1011,0 hPa 0,0 mm 0,0 km/h (0 Bft) O-NO 67 5 min 5,6 C 0,0 km/h (0 Bft)
18.05.2016 19:45 14,0 C 16,0 C 57 % 1011,0 hPa 0,0 mm 0,3 km/h (0 Bft) SO 135 0 min 5,6 C 0,0 km/h (0 Bft)
18.05.2016 19:50 13,7 C 15,3 C 57 % 1011,0 hPa 0,0 mm 0,3 km/h (0 Bft) SO 135 0 min 5,3 C 0,0 km/h (0 Bft)
18.05.2016 19:55 13,5 C 14,8 C 58 % 1010,8 hPa 0,0 mm 0,3 km/h (0 Bft) S-SO 157 0 min 5,4 C 0,0 km/h (0 Bft)
18.05.2016 19:56 13,7 C 14,9 C 58 % 1010,8 hPa 0,0 mm 0,3 km/h (0 Bft) S-SO 157 0 min 5,6 C 0,0 km/h (0 Bft)
18.05.2016 19:59 13,7 C 14,9 C 58 % 1010,8 hPa 0,0 mm 0,3 km/h (0 Bft) S-SO 157 0 min 5,6 C 0,0 km/h (0 Bft)
18.05.2016 20:00 13,7 C 14,9 C 58 % 1010,8 hPa 0,0 mm 0,3 km/h (0 Bft) S-SO 157 0 min 5,6 C 0,0 km/h (0 Bft)
18.05.2016 20:05 13,7 C 15,4 C 59 % 1010,8 hPa 0,0 mm 0,0 km/h (0 Bft) S-SO 157 0 min 5,8 C 0,0 km/h (0 Bft)
18.05.2016 20:10 13,4 C 15,0 C 59 % 1010,8 hPa 0,0 mm 0,0 km/h (0 Bft) S-SO 157 0 min 5,6 C 0,0 km/h (0 Bft)
18.05.2016 20:15 13,1 C 14,2 C 59 % 1010,7 hPa 0,0 mm 0,0 km/h (0 Bft) S-SO 157 0 min 5,3 C 0,0 km/h (0 Bft)
18.05.2016 20:20 12,9 C 13,7 C 59 % 1010,7 hPa 0,0 mm 0,9 km/h (0 Bft) S-SO 157 0 min 5,1 C 3,6 km/h (1 Bft)
18.05.2016 20:25 12,8 C 13,3 C 60 % 1010,7 hPa 0,0 mm 2,1 km/h (1 Bft) S-SO 157 0 min 5,2 C 3,6 km/h (1 Bft)
18.05.2016 20:30 12,5 C 13,0 C 62 % 1010,7 hPa 0,0 mm 2,1 km/h (1 Bft) S-SO 157 0 min 5,4 C 3,0 km/h (1 Bft)
18.05.2016 20:35 12,1 C 12,4 C 63 % 1010,5 hPa 0,0 mm 1,2 km/h (1 Bft) S-SO 157 0 min 5,3 C 4,2 km/h (1 Bft)
18.05.2016 20:40 12,0 C 12,2 C 64 % 1010,5 hPa 0,0 mm 1,2 km/h (1 Bft) S-SO 157 0 min 5,4 C 0,0 km/h (0 Bft)
18.05.2016 20:45 10,7 C 11,6 C 65 % 1010,5 hPa 0,0 mm 0,6 km/h (0 Bft) SO 135 0 min 4,4 C 0,0 km/h (0 Bft)
18.05.2016 20:50 10,2 C 11,1 C 66 % 1010,5 hPa 0,0 mm 0,3 km/h (0 Bft) O-NO 67 0 min 4,1 C 0,0 km/h (0 Bft)
18.05.2016 20:55 10,6 C 10,5 C 67 % 1010,3 hPa 0,0 mm 0,0 km/h (0 Bft) SO 135 0 min 4,7 C 0,0 km/h (0 Bft)
18.05.2016 21:00 10,6 C 10,5 C 68 % 1010,3 hPa 0,0 mm 0,0 km/h (0 Bft) SO 135 0 min 4,9 C 0,0 km/h (0 Bft)
18.05.2016 21:05 9,8 C 9,9 C 68 % 1010,3 hPa 0,0 mm 0,0 km/h (0 Bft) SO 135 0 min 4,2 C 0,0 km/h (0 Bft)
18.05.2016 21:10 9,3 C 9,3 C 68 % 1010,3 hPa 0,0 mm 0,0 km/h (0 Bft) S-SO 157 0 min 3,7 C 0,0 km/h (0 Bft)
18.05.2016 21:15 9,7 C 9,5 C 71 % 1010,2 hPa 0,0 mm 0,0 km/h (0 Bft) O-SO 112 0 min 4,7 C 0,0 km/h (0 Bft)
18.05.2016 21:20 9,4 C 9,2 C 72 % 1010,2 hPa 0,0 mm 0,0 km/h (0 Bft) O-SO 112 0 min 4,6 C 0,0 km/h (0 Bft)
18.05.2016 21:25 8,8 C 8,7 C 71 % 1010,2 hPa 0,0 mm 0,0 km/h (0 Bft) S-SO 157 0 min 3,8 C 0,0 km/h (0 Bft)
18.05.2016 21:30 9,0 C 8,7 C 73 % 1010,2 hPa 0,0 mm 0,0 km/h (0 Bft) O-SO 112 0 min 4,4 C 0,0 km/h (0 Bft)
18.05.2016 21:35 9,3 C 8,8 C 75 % 1010,1 hPa 0,0 mm 0,0 km/h (0 Bft) SO 135 0 min 5,1 C 0,0 km/h (0 Bft)
18.05.2016 21:40 9,4 C 8,9 C 74 % 1010,1 hPa 0,0 mm 0,0 km/h (0 Bft) S 180 0 min 5,0 C 0,0 km/h (0 Bft)
18.05.2016 21:45 9,5 C 9,1 C 74 % 1010,1 hPa 0,0 mm 0,0 km/h (0 Bft) SO 135 0 min 5,1 C 0,0 km/h (0 Bft)
18.05.2016 21:50 8,7 C 8,5 C 73 % 1010,1 hPa 0,0 mm 0,0 km/h (0 Bft) N-NO 22 0 min 4,1 C 0,0 km/h (0 Bft)
18.05.2016 21:55 8,6 C 8,3 C 75 % 1010,1 hPa 0,0 mm 0,0 km/h (0 Bft) SO 135 0 min 4,4 C 0,0 km/h (0 Bft)
18.05.2016 22:00 8,9 C 8,4 C 76 % 1010,1 hPa 0,0 mm 0,0 km/h (0 Bft) N-NW 337 0 min 4,9 C 0,0 km/h (0 Bft)
18.05.2016 22:05 8,5 C 8,1 C 75 % 1010,1 hPa 0,0 mm 0,0 km/h (0 Bft) SO 135 0 min 4,3 C 0,0 km/h (0 Bft)
18.05.2016 22:10 8,6 C 8,2 C 76 % 1010,1 hPa 0,0 mm 0,0 km/h (0 Bft) O-NO 67 0 min 4,6 C 0,0 km/h (0 Bft)
18.05.2016 22:15 8,4 C 8,0 C 76 % 1010,0 hPa 0,0 mm 0,0 km/h (0 Bft) N-NW 337 0 min 4,4 C 0,0 km/h (0 Bft)
18.05.2016 22:20 8,0 C 7,7 C 75 % 1010,0 hPa 0,0 mm 0,0 km/h (0 Bft) N-NO 22 0 min 3,8 C 0,0 km/h (0 Bft)
18.05.2016 22:25 7,8 C 7,5 C 75 % 1010,0 hPa 0,0 mm 0,0 km/h (0 Bft) NW 315 0 min 3,7 C 0,0 km/h (0 Bft)
18.05.2016 22:30 7,5 C 7,2 C 75 % 1010,0 hPa 0,0 mm 0,0 km/h (0 Bft) NO 45 0 min 3,4 C 0,0 km/h (0 Bft)
18.05.2016 22:35 7,6 C 7,2 C 76 % 1009,8 hPa 0,0 mm 0,0 km/h (0 Bft) O 90 0 min 3,6 C 0,0 km/h (0 Bft)
18.05.2016 22:40 7,9 C 7,4 C 79 % 1009,8 hPa 0,0 mm 0,0 km/h (0 Bft) O-SO 112 0 min 4,5 C 0,0 km/h (0 Bft)
18.05.2016 22:45 7,8 C 7,4 C 79 % 1009,8 hPa 0,0 mm 0,0 km/h (0 Bft) O-SO 112 0 min 4,4 C 0,0 km/h (0 Bft)
18.05.2016 22:50 7,4 C 7,1 C 78 % 1009,8 hPa 0,0 mm 0,0 km/h (0 Bft) NO 45 0 min 3,8 C 0,0 km/h (0 Bft)
18.05.2016 22:55 7,3 C 7,0 C 78 % 1009,8 hPa 0,0 mm 0,0 km/h (0 Bft) N-NW 337 0 min 3,7 C 0,0 km/h (0 Bft)
18.05.2016 22:56 7,2 C 6,9 C 78 % 1009,8 hPa 0,0 mm 0,0 km/h (0 Bft) S-SO 157 0 min 3,6 C 0,0 km/h (0 Bft)
18.05.2016 23:00 7,2 C 6,9 C 78 % 1009,8 hPa 0,0 mm 0,0 km/h (0 Bft) S-SO 157 0 min 3,6 C 0,0 km/h (0 Bft)
18.05.2016 23:05 7,4 C 7,0 C 79 % 1009,8 hPa 0,0 mm 0,0 km/h (0 Bft) O-NO 67 0 min 4,0 C 0,0 km/h (0 Bft)
18.05.2016 23:10 7,2 C 6,9 C 79 % 1009,8 hPa 0,0 mm 0,0 km/h (0 Bft) NW 315 0 min 3,8 C 0,0 km/h (0 Bft)
18.05.2016 23:15 7,0 C 6,8 C 79 % 1009,6 hPa 0,0 mm 0,0 km/h (0 Bft) NW 315 0 min 3,6 C 0,0 km/h (0 Bft)
18.05.2016 23:20 7,1 C 6,8 C 79 % 1009,6 hPa 0,0 mm 0,0 km/h (0 Bft) O 90 0 min 3,7 C 0,0 km/h (0 Bft)
18.05.2016 23:25 7,2 C 7,0 C 79 % 1009,6 hPa 0,0 mm 0,0 km/h (0 Bft) O-NO 67 0 min 3,8 C 0,0 km/h (0 Bft)
18.05.2016 23:30 7,3 C 7,1 C 79 % 1009,6 hPa 0,0 mm 0,0 km/h (0 Bft) O-NO 67 0 min 3,9 C 0,0 km/h (0 Bft)
18.05.2016 23:35 7,3 C 7,2 C 79 % 1009,4 hPa 0,0 mm 0,0 km/h (0 Bft) N 360 0 min 3,9 C 0,0 km/h (0 Bft)
18.05.2016 23:40 7,4 C 7,3 C 79 % 1009,4 hPa 0,0 mm 0,0 km/h (0 Bft) NW 315 0 min 4,0 C 0,0 km/h (0 Bft)
18.05.2016 23:45 7,7 C 7,5 C 80 % 1009,4 hPa 0,0 mm 0,0 km/h (0 Bft) NO 45 0 min 4,5 C 0,0 km/h (0 Bft)
18.05.2016 23:50 7,6 C 7,5 C 80 % 1009,4 hPa 0,0 mm 0,0 km/h (0 Bft) N-NO 22 0 min 4,4 C 0,0 km/h (0 Bft)
18.05.2016 23:55 7,8 C 7,6 C 80 % 1009,4 hPa 0,0 mm 0,0 km/h (0 Bft) W 270 0 min 4,6 C 0,0 km/h (0 Bft)
_ Min-Zeit 03:00 03:05 17:20 23:55 - 23:55 - - - 02:45 23:55
Minimum _ 3,0 C 2,7 C 48 % 1009,4 hPa - 0,0 km/h (0 Bft) - - - 1,0 C 0,0 km/h (0 Bft)
_ Max-Zeit 13:45 13:50 06:40 00:10 23:55 14:50 - - 19:40 13:45 14:15
Maximum _ 20,6 C 23,4 C 89 % 1017,4 hPa 0,0 mm 12,2 km/h
O-NO (2 Bft)
- - 5 min 9,5 C 22,7 km/h
N-NO (4 Bft)
Durchschnitt _ 11,3 C 12,7 C 69 % 1013,8 hPa #0,0 mm 2,8 km/h (1 Bft) O-NO - #8:20 h 5,3 C 3,8 km/h (1 Bft)